GW2225 Weather Reports


time (UTC)temp
C
wind
direction
speed
KPH
gust
KPH
rain 1hr
cm
rain 24hr
cm
rain mn
cm
humidity
%
barometer
mb
20260504213021 23 15 1.6 8.0 0.00 0.00 0.00 45 1012.6
20260504211525 23 164 0.0 6.4 0.00 0.00 0.00 43 1012.8
20260504210007 24 262 0.0 4.8 0.00 0.00 0.00 43 1012.9
20260504204504 24 245 0.0 6.4 0.00 0.00 0.00 44 1013.2
20260504203057 23 240 0.0 9.7 0.00 0.00 0.00 45 1013.2
20260504201546 23 352 0.0 6.4 0.00 0.00 0.00 50 1013.3
20260504200044 23 321 1.6 4.8 0.00 0.00 0.00 52 1013.6
20260504194548 23 257 0.0 6.4 0.00 0.00 0.00 51 1014.0
20260504193038 23 252 0.0 11.3 0.00 0.00 0.00 53 1014.3
20260504191536 23 221 1.6 11.3 0.00 0.00 0.00 50 1014.8
20260504190033 22 146 0.0 8.0 0.00 0.00 0.00 52 1014.9
20260504184543 22 281 0.0 6.4 0.00 0.00 0.00 52 1015.0
20260504183029 22 309 1.6 6.4 0.00 0.00 0.00 52 1015.2
20260504181526 22 280 0.0 3.2 0.00 0.00 0.00 49 1015.3
20260504180025 21 146 1.6 8.0 0.00 0.00 0.00 49 1015.6
20260504174521 21 264 3.2 6.4 0.00 0.00 0.00 51 1015.8
20260504173017 21 139 0.0 6.4 0.00 0.00 0.00 52 1015.9
20260504171515 20 137 0.0 8.0 0.00 0.00 0.00 51 1016.2
20260504081531 5 207 0.0 0.0 0.00 0.00 0.00 84 1017.7
20260504050006 7 207 0.0 0.0 0.00 0.00 0.00 79 1018.0
20260504044509 7 207 0.0 0.0 0.00 0.00 0.00 76 1017.8
20260504043101 7 207 0.0 0.0 0.00 0.00 0.00 77 1017.9
20260504041529 7 207 0.0 0.0 0.00 0.00 0.00 76 1017.8
20260504040011 8 207 0.0 0.0 0.00 0.00 0.00 72 1017.7
20260504034516 9 207 0.0 0.0 0.00 0.00 0.00 69 1018.0
20260504033014 8 207 0.0 3.2 0.00 0.00 0.00 66 1017.8
20260504031510 8 212 0.0 0.0 0.00 0.00 0.00 71 1017.8
20260504030009 8 212 0.0 0.0 0.00 0.00 0.00 69 1017.5
20260504024510 8 212 0.0 0.0 0.00 0.00 0.00 67 1017.6
20260504023009 9 212 0.0 0.0 0.00 0.00 0.00 68 1017.5
20260504021508 10 212 0.0 0.0 0.00 0.00 0.00 63 1017.3
20260504020010 10 212 0.0 1.6 0.00 0.00 0.00 64 1017.4
20260504014511 10 137 0.0 3.2 0.00 0.00 0.00 61 1017.3
20260504013006 10 255 0.0 1.6 0.00 0.00 0.00 62 1017.4
20260504011505 10 255 0.0 0.0 0.00 0.00 0.00 61 1017.6
20260504010004 11 254 0.0 0.0 0.00 0.00 0.00 59 1017.4
20260504004513 11 255 0.0 0.0 0.00 0.00 0.00 57 1017.0
20260504003054 12 255 0.0 0.0 0.00 0.00 0.00 55 1016.9
20260504001516 13 254 0.0 0.0 0.00 0.00 0.00 52 1016.8
20260504000014 13 255 0.0 0.0 0.00 0.00 0.00 50 1016.9
20260503234514 14 254 0.0 0.0 0.00 0.00 0.00 47 1017.1
20260503233018 15 254 0.0 0.0 0.00 0.00 0.00 48 1017.0
20260503231511 15 262 0.0 3.2 0.00 0.00 0.00 45 1017.2
20260503230015 15 262 0.0 3.2 0.00 0.00 0.00 46 1017.1
20260503224510 16 274 0.0 3.2 0.00 0.00 0.00 45 1017.1
20260503223010 16 266 0.0 3.2 0.00 0.00 0.00 42 1017.3
20260503221508 16 220 1.6 6.4 0.00 0.00 0.00 41 1017.4
20260503220007 16 268 0.0 3.2 0.00 0.00 0.00 45 1017.4
20260503214508 16 259 0.0 6.4 0.00 0.00 0.00 41 1017.6